Location: ?????
(32.7281°N, 34.9563°E)
Time: 00:57:44
(UTC+00:00)

Meteor 2-8 Rocket - Pass Details

Date: 29 October 2020
Orbit: 937 x 957 km, 82.5° (Epoch: 25 November)

Event Time Altitude Azimuth Distance (km) Brightness Sun altitude
Rises 15:23:41 0° 180° (S) 3,594 7.6 -7.3°
Reaches altitude 10° 15:26:09 10° 179° (S) 2,655 6.9 -7.9°
Maximum altitude 15:32:13 77° 95° (E) 975 4.4 -9.1°
Drops below altitude 10° 15:38:21 10° 10° (N) 2,684 6.6 -10.4°
Sets 15:40:51 0° 9° (N) 3,635 7.3 -10.9°
